HJ3GNC-16 Weather Reports


time (UTC)temp
C
wind
direction
speed
KPH
gust
KPH
rain 1hr
cm
rain 24hr
cm
rain mn
cm
humidity
%
barometer
mb
20260507150221 26 210 0.0 0.0 0.00 0.00 0.00 73 1015.0
20260507144636 26 210 0.0 0.0 0.00 0.00 0.00 73 1015.0
20260507143049 26 210 0.0 0.0 0.00 0.00 0.00 73 1015.0
20260507141508 26 210 0.0 0.0 0.00 0.00 0.00 73 1015.0
20260507135924 26 0 0.0 0.0 0.00 0.00 0.00 73 1015.0
20260507134325 22 0 0.0 0.0 0.00 0.00 0.00 88 1015.0
20260507132722 22 0 0.0 0.0 0.00 0.00 0.00 88 1015.0
20260507131120 22 240 0.0 0.0 0.00 0.00 0.00 88 1014.0
20260507125505 22 240 0.0 0.0 0.00 0.00 0.00 88 1014.0
20260507123921 22 240 0.0 0.0 0.00 0.00 0.00 88 1014.0
20260507122317 22 195 0.0 0.0 0.00 0.00 0.00 88 1014.0
20260507120721 22 195 0.0 0.0 0.00 0.00 0.00 88 1014.0
20260507115052 22 0 0.0 0.0 0.00 0.00 0.00 88 1014.0
20260507113509 22 0 0.0 0.0 0.00 0.00 0.00 88 1014.0
20260507111921 22 0 0.0 0.0 0.00 0.00 0.00 88 1013.0
20260507110331 22 0 0.0 0.0 0.00 0.00 0.00 88 1013.0
20260507104748 22 0 0.0 0.0 0.00 0.00 0.00 88 1013.0
20260507103207 22 0 0.0 0.0 0.00 0.00 0.00 88 1013.0
20260507101627 22 0 0.0 0.0 0.00 0.00 0.00 88 1013.0
20260507100046 22 100 0.0 0.0 0.00 0.00 0.00 88 1013.0
20260507094506 22 100 0.0 0.0 0.00 0.00 0.00 88 1013.0
20260507092922 22 100 0.0 0.0 0.00 0.00 0.00 88 1013.0
20260507091338 22 100 0.0 0.0 0.00 0.00 0.00 88 1013.0
20260507085753 22 360 0.0 0.0 0.00 0.00 0.00 88 1013.0
20260507084209 22 360 0.0 0.0 0.00 0.00 0.00 88 1013.0
20260507082627 22 360 0.0 0.0 0.00 0.00 0.00 88 1013.0
20260507081041 22 360 0.0 0.0 0.00 0.00 0.00 88 1013.0
20260507075456 22 70 0.0 0.0 0.00 0.00 0.00 88 1013.0
20260507073915 22 70 0.0 0.0 0.00 0.00 0.00 88 1013.0
20260507072327 22 70 0.0 0.0 0.00 0.00 0.00 88 1013.0
20260507070745 22 70 0.0 0.0 0.00 0.00 0.00 88 1013.0
20260507065154 22 0 0.0 0.0 0.00 0.00 0.00 88 1013.0
20260507063610 25 0 0.0 0.0 0.00 0.00 0.00 73 1013.0
20260507062026 25 0 0.0 0.0 0.00 0.00 0.00 73 1013.0
20260507060444 25 170 0.0 0.0 0.00 0.00 0.00 73 1013.0
20260507054901 25 170 0.0 0.0 0.00 0.00 0.00 73 1013.0
20260507053321 25 170 0.0 0.0 0.00 0.00 0.00 73 1013.0
20260507051739 25 170 0.0 0.0 0.00 0.00 0.00 73 1014.0
20260507050147 25 168 0.0 0.0 0.00 0.00 0.00 73 1014.0
20260507044601 25 168 0.0 0.0 0.00 0.00 0.00 73 1014.0
20260507043013 25 168 0.0 0.0 0.00 0.00 0.00 73 1014.0
20260507041429 25 166 0.0 0.0 0.00 0.00 0.00 73 1014.0
20260507035841 25 0 0.0 0.0 0.00 0.00 0.00 73 1014.0
20260507034254 25 0 0.0 0.0 0.00 0.00 0.00 73 1014.0
20260507032710 25 0 0.0 0.0 0.00 0.00 0.00 73 1014.0
20260507031125 25 0 0.0 0.0 0.00 0.00 0.00 73 1014.0
20260507025532 25 270 0.0 0.0 0.00 0.00 0.00 73 1014.0
20260507023939 25 270 0.0 0.0 0.00 0.00 0.00 73 1014.0
20260507022354 25 270 0.0 0.0 0.00 0.00 0.00 73 1013.0
20260507020811 25 270 0.0 0.0 0.00 0.00 0.00 73 1013.0
20260507015221 25 170 0.0 0.0 0.00 0.00 0.00 73 1013.0
20260507013637 25 170 0.0 0.0 0.00 0.00 0.00 73 1013.0
20260507012052 25 170 0.0 0.0 0.00 0.00 0.00 73 1012.0
20260507010507 25 170 0.0 0.0 0.00 0.00 0.00 73 1012.0
20260507004918 25 220 0.0 0.0 0.00 0.00 0.00 73 1012.0
20260507003332 27 220 0.0 0.0 0.00 0.00 0.00 65 1012.0
20260507001750 27 220 0.0 0.0 0.00 0.00 0.00 65 1011.0
20260507000206 27 190 0.0 0.0 0.00 0.00 0.00 65 1011.0
20260506234618 27 190 0.0 0.0 0.00 0.00 0.00 65 1011.0
20260506233029 27 190 0.0 0.0 0.00 0.00 0.00 65 1011.0
20260506231443 27 190 0.0 0.0 0.00 0.00 0.00 65 1010.0
20260506225844 27 190 0.0 0.0 0.00 0.00 0.00 65 1010.0
20260506224253 27 190 0.0 0.0 0.00 0.00 0.00 65 1010.0
20260506222704 27 190 0.0 0.0 0.00 0.00 0.00 65 1010.0
20260506221109 27 190 0.0 0.0 0.00 0.00 0.00 65 1010.0
20260506215526 27 200 0.0 0.0 0.00 0.00 0.00 65 1010.0
20260506212242 27 200 0.0 0.0 0.00 0.00 0.00 65 1011.0
20260506210615 27 200 0.0 0.0 0.00 0.00 0.00 65 1010.0
20260506205032 27 190 0.0 0.0 0.00 0.00 0.00 65 1010.0
20260506203443 27 190 0.0 0.0 0.00 0.00 0.00 65 1010.0
20260506201856 27 190 0.0 0.0 0.00 0.00 0.00 65 1011.0
20260506200302 26 200 0.0 0.0 0.00 0.00 0.00 78 1010.0
20260506194711 26 200 0.0 0.0 0.00 0.00 0.00 78 1010.0
20260506193127 26 200 0.0 0.0 0.00 0.00 0.00 78 1011.0
20260506191541 26 200 0.0 0.0 0.00 0.00 0.00 78 1010.0
20260506185935 26 190 0.0 0.0 0.00 0.00 0.00 73 1010.0
20260506184346 26 190 0.0 0.0 0.00 0.00 0.00 73 1011.0
20260506182800 26 190 0.0 0.0 0.00 0.00 0.00 73 1013.0
20260506181217 26 190 0.0 0.0 0.00 0.00 0.00 73 1011.0
20260506175604 25 200 0.0 0.0 0.00 0.00 0.00 83 1011.0
20260506174015 25 200 0.0 0.0 0.00 0.00 0.00 83 1012.0
20260506172427 25 200 0.0 0.0 0.00 0.00 0.00 83 1014.0
20260506170845 25 200 0.0 0.0 0.00 0.00 0.00 83 1013.0
20260506165300 25 190 0.0 0.0 0.00 0.00 0.00 83 1013.0
20260506163714 25 190 0.0 0.0 0.00 0.00 0.00 83 1014.0
20260506162101 25 190 0.0 0.0 0.00 0.00 0.00 83 1016.0
20260506160514 25 190 0.0 0.0 0.00 0.00 0.00 83 1015.0
20260506154922 23 200 0.0 0.0 0.00 0.00 0.00 88 1015.0
20260506153331 23 200 0.0 0.0 0.00 0.00 0.00 88 1015.0
20260506151729 23 200 0.0 0.0 0.00 0.00 0.00 88 1016.0